« Back
NWS Peachtree City, Ga » Text Product » GA Regional Weather Roundup


Printer-friendly Version
Current Version              Previous Versions:   1  2  3  4  5  6  7  8  9  

Regional Weather Roundup

909
ASUS42 KFFC 310710
RWRGA
WEATHER ROUNDUP FOR GEORGIA
NATIONAL WEATHER SERVICE PEACHTREE CITY GA
300 AM EDT MON AUG 31 2015

NOTE: "FAIR" INDICATES FEW OR NO CLOUDS BELOW 12,000 FEET WITH NO
SIGNIFICANT WEATHER AND/OR OBSTRUCTIONS TO VISIBILITY.

* = USE WITH CAUTION. THE STATIONS MARKED WITH AN ASTERISK MAY NOT
REPORT WEATHER SUCH AS PRECIPITATION, FOG, OR THUNDER AND ARE NOT
QUALITY CONTROLLED BY NWS.

THE REMARK "TC" DENOTES TEMPERATURE READING IN DEGREES CELSIUS.

GAZ001>058-310800-
NORTH GEORGIA

CITY           SKY/WX    TMP DP  RH WIND       PRES   REMARKS
ATLANTA        DRIZZLE   66  64  94 E9        30.08F FOG
ATHENS         CLOUDY    66  64  93 E5        30.10F
CHAMBLEE       CLOUDY    68  65  90 CALM      30.09F
PEACHTREE CITY CLOUDY    69  68  96 NE6       30.08F FOG
ROME           CLOUDY    69  65  86 NE5       30.08F
WEST ATLANTA   CLOUDY    69  65  86 NE6       30.08F
GAINESVILLE    CLOUDY    67  62  84 E7        30.13F
CARTERSVILLE   CLOUDY    69  65  86 E3        30.09F


CITY           SKY/WX    TMP DP  RH WIND       PRES   REMARKS
DALTON*        CLOUDY    66  66 100 CALM      30.10F
MARIETTA       CLOUDY    68  65  91 E5        30.09F
BLAIRSVILLE*     N/A     63  54  73 CALM      30.15S
$$

GAZ059>098-102>109-310800-
CENTRAL GEORGIA

CITY           SKY/WX    TMP DP  RH WIND       PRES   REMARKS
AUGUSTA-BUSH   MOCLDY    69  68  96 N3        30.07R
AUGUSTA-DANIEL CLOUDY    71  67  87 N6        30.09R FOG
COLUMBUS       CLOUDY    74  70  87 E5        30.04S
MACON          CLOUDY    72  69  90 NE7       30.05F
ROBINS AFB     CLOUDY    72  70  94 NE3       30.05R


CITY           SKY/WX    TMP DP  RH WIND       PRES   REMARKS
LAGRANGE*      HVY RAIN  74  74 100 N3        30.07S
SYLVANIA*      CLOUDY    74  74 100 NE3       30.06S FOG
MILLEDGEVILLE* CLOUDY    70  68  94 CALM      30.07F
$$

GAZ099>101-110>166-310800-
SOUTH GEORGIA

CITY           SKY/WX    TMP DP  RH WIND       PRES   REMARKS
SAVANNAH       MOCLDY    75  73  93 N3        30.03F
VALDOSTA       CLOUDY    73  73 100 CALM      30.02S
ALMA           CLOUDY    75  74  96 CALM      30.03R
ST SIMONS      MOCLDY    79  76  90 SE6       29.99F
FT STEWART     CLOUDY    74  73  95 CALM      30.01F FOG
ALBANY         MOCLDY    74  72  93 NE6       30.03F
HUNTER AFB     MOCLDY    75  75 100 N3        30.00F
MOODY AFB      MOCLDY    74  72  94 NE3       30.01S
BRUNSWICK      CLOUDY    73  73 100 CALM      30.01F


CITY           SKY/WX    TMP DP  RH WIND       PRES   REMARKS
BAINBRIDGE*    CLEAR     72  70  94 CALM      30.01S
MOULTRIE*      CLEAR     72  70  94 CALM      30.03S
VIDALIA*       CLOUDY    73  72  94 NE6       30.04F FOG
WAYCROSS*      MOCLDY    78  78 100 NE5       30.02F
DOUGLAS*       MOCLDY    77  75  94 NE6       30.04F
$$



USA.gov is the U.S. government's official web portal to all federal, state and local government web resources and services.